{"data":{"norad_id":62024,"epoch":"2026-09-21T16:17:45.609504Z","epoch_age_seconds":83675,"freshness":"FRESH","line1":"1 62024U 24213S   26264.67900011  .00018646  00000+0  56171-3 0  9997","line2":"2 62024  53.1600 336.2226 0001200  75.2299 284.8837 15.34395013103189","mean_motion":15.34395013,"eccentricity":0.00012,"inclination_deg":53.16,"raan_deg":336.2226,"arg_perigee_deg":75.2299,"mean_anomaly_deg":284.8837,"bstar":0.00056171,"rev_number":10318,"period_min":93.848063099772,"perigee_km":461.89716005469,"apogee_km":463.53896526973,"semimajor_km":6840.8550626622,"source":"CELESTRAK","updated_at":"2026-09-22T09:00:49.485390Z"}}